Location: Newark
(41.0400°S, 62.7845°W)
Time: 00:40:46
(UTC+00:00)

Envisat - Pass Details

Date: 01 November 2021
Orbit: 764 x 766 km, 98.2° (Epoch: 28 November)

Event Time Altitude Azimuth Distance (km) Brightness Sun altitude
Rises 08:04:28 0° 24° (NNE) 3,223 6.2 -10.0°
Reaches altitude 10° 08:06:47 10° 27° (NNE) 2,306 5.5 -9.6°
Maximum altitude 08:11:48 62° 107° (ESE) 867 3.6 -8.8°
Drops below altitude 10° 08:16:53 10° 186° (S) 2,336 5.8 -7.9°
Sets 08:19:14 0° 189° (S) 3,271 6.5 -7.5°
